STARLINK-4591, 53607

Orbit data source: Space-Track

STARLINK-4591, 53607 is a payload satellite owned by SpaceX/Seattle (US) in LEO that was launched on Sun, 28 Aug 2022 UTC via an FALCON 9 launch vehicle from the Air Force Eastern Test Range (AFETR). Payload-class satellites include a variety of spacecraft equipped with specific instruments for various scientific and technological missions. These include communications satellites like Starlink; space stations such as the ISS; scientific satellites like the Hubble; Earth observation satellites from companies like Planet Labs, Umbra, and HawkEye 360; GPS; miniature CubeSats for education and research; and military/defense satellites.

Loading next visibility...
Identifier
53607, 2022-104V
Orbit
LEO
Country
Flag of USUS
Related business
Manufacturer
SpaceX/Seattle
Mission
Operational Commercial Communications
Bus & Motor
STARLINK, Unknown motor
Mass
300 kg wet, ~290 kg dry
Launch date (UTC)
2022-08-28 (3 years ago)
Launch vehicle
FALCON 9
Launch site
Air Force Eastern Test Range (AFETR)
Object type
Payload
Rocket body
Debris
Shape & HBR
Box + 1 Pan, 10.1 m
Radar Cross Section
13.562 m², Large (>1 m²)

Expand to show TLE details & history
Last TLE update: 16 hours ago

TLE from 16 hours ago
0 STARLINK-4591
1 53607U 22104V   25347.17572089  .00003898  00000-0  26280-3 0  9999
2 53607  53.2165 267.5474 0001347  81.9478 278.1667 15.08846944182627
Epoch: 2025-12-13T04:13Z
TLE epoch observation values (Epoch: 2025-12-13T04:13:02.284Z)
Latitude
-0.00004°
Longitude
122.1811°
Altitude
540.487 km
Speed
7.593 km/s
True Right ascension
17h 50m 11s
True Declination
0° 00' 00"
Sunlit
Object was in daylight at epoch
Visualization orbit readout
Latitude
Unknown
Longitude
Unknown
Altitude
Unknown
Speed
Unknown
Apparent Right ascension
Unknown
Apparent Declination
Unknown
Sunlit
N/A
Visualization observer readout
Local Sidereal Time
19:02:17
Azimuth
Unknown
Elevation
Unknown
Doppler factor
Unknown
Orbital elements
Apogee altitude
540.899 km
Perigee altitude
539.035 km
Semi-major axis
6,918.104 km
Eccentricity
0.00013
Inclination
53.2165°
RAAN
267.5474°
Arg. of periapsis
81.9478°
True anomaly
278.15142°
Mean anomaly
278.1667°
Eccentric anomaly
278.15906°
Mean motion
3.77192 °/min
Orbital period
95.44 mins
BSTAR
0.0002628
Loading maneuver chart data...
Computing Atmospheric mass density...
Loading historical data...
Loading historical data...
Loading historical data...
Loading historical data...
Loading historical data...
Loading historical data...
Loading historical data...

Documentation

Showing up to 5 results
|